Weather History for Topeka, KS

Change the Weather History Date:

Wednesday, April 10, 2013

  Actual Average Record
Temperature  
Mean Temperature 40 °F 53 °F  
Max Temperature 44 °F 65 °F 92 °F (1930)
Min Temperature 35 °F 41 °F 25 °F (1989)
Degree Days  
Heating Degree Days 25 12  
Month to date heating degree days 142 137  
Since 1 July heating degree days 4463 4732  
Cooling Degree Days 0 1  
Month to date cooling degree days 0 3  
Year to date cooling degree days 0 6  
Moisture  
Dew Point 37 °F    
Average Humidity 89    
Maximum Humidity 92    
Minimum Humidity 85    
Precipitation  
Precipitation 0.38 in 0.11 in 1.85 in (1944)
Month to date precipitation 1.31 1.04  
Year to date precipitation 5.76 5.71  
Snow  
Snow 0.00 in 0.00 in 0.80 in (1997)
Month to date snowfall 0.0 0.2  
Year to date snowfall 23.9 11.2  
Since 1 July snowfall 29.3 17.7  
Snow Depth 0.00 in    
Sea Level Pressure  
Sea Level Pressure 29.87 in    
Wind  
Wind Speed 11 mph (NW)    
Max Wind Speed 23 mph    
Max Gust Speed 28 mph    
Visibility 6 miles    
Events Rain , Thunderstorm    
T = Trace of Precipitation, MM = Missing Value Source: NWS Daily Summary

Daily Weather History Graph

Daily Weather History Graph

Search for Another Location

Airport:

Trip Planner

Search our weather history database for the weather conditions in past years. The results will help you decide how hot, cold, wet, or windy it might be!

Date:

Astronomy

Apr. 10, 2013 Rise Set
Actual Time 6:52 AM CDT 7:55 PM CDT
Civil Twilight 6:25 AM CDT 8:22 PM CDT
Nautical Twilight 5:52 AM CDT 8:55 PM CDT
Astronomical Twilight 5:19 AM CDT 9:29 PM CDT
Moon 6:49 AM CDT (4/10) 8:31 PM CDT (4/10)
Length of Visible Light 13h 57m
Length of Day
13h 02m
New Moon, 0% of the Moon is Illuminated
Apr 10
New Moon
Apr 18
First Quarter
Apr 25
Full
May 2
Last Quarter
May 9
New

Hourly Weather History & Observations

Time (CDT) Temp. Windchill Dew Point Humidity Pressure Visibility Wind Dir Wind Speed Gust Speed Precip Events Conditions
12:24 AM 41.0 °F 33.1 °F 37.0 °F 86% 29.85 in 6.0 mi North 15.0 mph 25.3 mph 0.06 in Rain , Thunderstorm Rain
12:26 AM 41.0 °F 32.8 °F 37.0 °F 86% 29.83 in 6.0 mi NNE 16.1 mph 25.3 mph 0.06 in Rain , Thunderstorm Light Rain
12:30 AM 41.0 °F 33.9 °F 37.0 °F 86% 29.83 in 8.0 mi NE 12.7 mph 23.0 mph 0.06 in Rain , Thunderstorm Light Rain
12:42 AM 42.1 °F 39.2 °F 39.0 °F 89% 29.87 in 1.8 mi North 4.6 mph - 0.12 in Rain , Thunderstorm Heavy Rain
12:53 AM 42.1 °F 38.4 °F 39.0 °F 89% 29.86 in 1.5 mi NNE 5.8 mph - 0.28 in Rain , Thunderstorm Heavy Thunderstorms and Rain
1:02 AM 42.1 °F 39.2 °F 39.9 °F 92% 29.85 in 3.0 mi North 4.6 mph - 0.05 in Rain , Thunderstorm Thunderstorms and Rain
1:23 AM 43.0 °F 41.3 °F 39.9 °F 89% 29.88 in 7.0 mi Variable 3.5 mph - 0.11 in Rain , Thunderstorm Light Rain
1:42 AM 43.0 °F 38.2 °F 41.0 °F 93% 29.82 in 4.0 mi NNE 8.1 mph - 0.13 in Rain Rain
1:53 AM 43.0 °F 36.4 °F 39.9 °F 89% 29.81 in 5.0 mi NE 12.7 mph - 0.15 in Rain , Thunderstorm Light Thunderstorms and Rain
2:06 AM 43.0 °F 34.0 °F 39.9 °F 89% 29.74 in 6.0 mi NE 21.9 mph 25.3 mph 0.02 in Rain Light Rain
2:20 AM 43.0 °F 38.8 °F 41.0 °F 93% 29.79 in 10.0 mi NW 6.9 mph 19.6 mph 0.03 in Rain Light Rain
2:53 AM 43.0 °F 36.8 °F 39.9 °F 89% 29.82 in 10.0 mi West 11.5 mph 23.0 mph 0.03 in   Overcast
3:36 AM 41.0 °F 33.5 °F 37.9 °F 89% 29.86 in 10.0 mi WNW 13.8 mph 24.2 mph 0.00 in Rain , Thunderstorm Light Rain
3:53 AM 41.0 °F 34.3 °F 39.0 °F 93% 29.88 in 6.0 mi West 11.5 mph - 0.03 in Rain , Thunderstorm Light Rain
4:05 AM 41.0 °F 33.9 °F 37.9 °F 89% 29.85 in 6.0 mi West 12.7 mph 24.2 mph 0.02 in Rain Light Rain
4:53 AM 41.0 °F 34.3 °F 37.0 °F 86% 29.89 in 10.0 mi WNW 11.5 mph - 0.02 in Rain Light Rain
5:53 AM 39.9 °F 32.9 °F 36.0 °F 86% 29.91 in 10.0 mi WNW 11.5 mph 23.0 mph 0.01 in   Overcast
6:38 AM 39.0 °F 33.4 °F 36.0 °F 89% 29.88 in 10.0 mi North 8.1 mph - N/A   Overcast
6:53 AM 39.0 °F 32.8 °F 36.0 °F 89% 29.88 in 10.0 mi NNW 9.2 mph - N/A   Overcast
7:53 AM 39.0 °F 32.3 °F 36.0 °F 89% 29.91 in 10.0 mi NW 10.4 mph - N/A   Overcast
8:53 AM 39.0 °F 32.3 °F 36.0 °F 89% 29.94 in 10.0 mi NW 10.4 mph - N/A   Overcast
9:53 AM 37.9 °F 30.9 °F 35.1 °F 89% 29.96 in 5.0 mi West 10.4 mph - 0.02 in Rain Light Rain
10:19 AM 37.9 °F 32.1 °F 35.1 °F 89% 29.96 in 4.0 mi West 8.1 mph - 0.04 in Rain Light Rain
10:53 AM 37.9 °F 30.5 °F 35.1 °F 89% 29.94 in 9.0 mi NW 11.5 mph - 0.06 in Rain Light Rain
11:11 AM 37.9 °F 29.2 °F 35.1 °F 89% 29.92 in 8.0 mi WNW 15.0 mph - 0.01 in Rain Light Rain
11:31 AM 37.9 °F 30.9 °F 35.1 °F 89% 29.94 in 10.0 mi WNW 10.4 mph 21.9 mph 0.01 in Rain Light Rain
11:53 AM 37.4 °F 29.8 °F 35.6 °F 93% 29.95 in 5.0 mi WNW 11.5 mph - N/A Rain Light Rain
12:53 PM 39.2 °F 31.2 °F 35.6 °F 87% 29.91 in 10.0 mi NW 13.8 mph - N/A   Overcast
1:53 PM 37.4 °F 28.5 °F 35.6 °F 93% 29.93 in 4.0 mi WNW 15.0 mph 26.5 mph N/A   Overcast
2:45 PM 39.0 °F 30.6 °F 36.0 °F 89% 29.89 in 4.0 mi WNW 15.0 mph - 0.02 in Rain Light Rain
2:53 PM 39.0 °F 31.4 °F 36.0 °F 89% 29.90 in 9.0 mi NW 12.7 mph - 0.03 in Rain Light Rain
3:01 PM 39.0 °F 31.8 °F 36.0 °F 89% 29.89 in 5.0 mi NW 11.5 mph - 0.00 in Rain Light Rain
3:53 PM 39.0 °F 30.6 °F 36.0 °F 89% 29.86 in 2.5 mi NW 15.0 mph - 0.02 in   Overcast
3:58 PM 39.0 °F 30.6 °F 36.0 °F 89% 29.84 in 1.8 mi NW 15.0 mph - 0.00 in Rain Light Rain
4:13 PM 39.0 °F 31.4 °F 36.0 °F 89% 29.83 in 3.0 mi NW 12.7 mph 20.7 mph 0.00 in   Overcast
4:35 PM 39.9 °F 32.5 °F 37.0 °F 89% 29.82 in 3.0 mi NW 12.7 mph - 0.00 in   Overcast
4:53 PM 39.9 °F 33.9 °F 37.0 °F 89% 29.84 in 4.0 mi WNW 9.2 mph - 0.00 in   Overcast
5:39 PM 39.9 °F 34.5 °F 37.9 °F 93% 29.83 in 2.5 mi WNW 8.1 mph - N/A   Overcast
5:53 PM 39.9 °F 33.4 °F 37.0 °F 89% 29.84 in 2.0 mi WNW 10.4 mph - N/A   Overcast
6:02 PM 39.9 °F 32.9 °F 37.0 °F 89% 29.82 in 2.0 mi WNW 11.5 mph - N/A   Overcast
6:21 PM 39.9 °F 33.4 °F 37.0 °F 89% 29.83 in 2.5 mi WNW 10.4 mph - N/A   Overcast
6:33 PM 39.9 °F 33.4 °F 37.0 °F 89% 29.84 in 4.0 mi WNW 10.4 mph - N/A   Overcast
6:53 PM 39.9 °F 34.5 °F 37.0 °F 89% 29.85 in 5.0 mi West 8.1 mph - 0.00 in Rain Light Rain
7:05 PM 39.0 °F 32.8 °F 37.0 °F 93% 29.85 in 4.0 mi West 9.2 mph - 0.00 in Rain Light Rain
7:53 PM 39.0 °F 32.8 °F 36.0 °F 89% 29.85 in 10.0 mi West 9.2 mph - 0.01 in Rain Light Rain
8:53 PM 37.9 °F 31.5 °F 35.1 °F 89% 29.85 in 10.0 mi West 9.2 mph - 0.00 in   Overcast
9:44 PM 37.0 °F 28.9 °F 34.0 °F 89% 29.85 in 10.0 mi WNW 12.7 mph - N/A   Overcast
9:53 PM 37.0 °F 28.9 °F 34.0 °F 89% 29.86 in 10.0 mi West 12.7 mph - N/A   Overcast
10:15 PM 37.0 °F 29.3 °F 34.0 °F 89% 29.86 in 3.0 mi West 11.5 mph - N/A   Overcast
10:36 PM 36.0 °F 26.7 °F 33.1 °F 89% 29.87 in 2.0 mi WNW 15.0 mph - 0.00 in   Overcast
10:53 PM 36.0 °F 28.0 °F 33.1 °F 89% 29.88 in 3.0 mi WNW 11.5 mph 20.7 mph 0.01 in   Overcast
11:53 PM 35.1 °F 27.4 °F 33.1 °F 92% 29.89 in 4.0 mi West 10.4 mph - N/A   Overcast